Regional Weather Roundup
Issued by NWS Jackson, KY

Home | Current Version | Previous Version | Text Only | Print | Product List | Glossary Off
Versions: 1 2 3 4 5 6 7 8 9 10 11 12 13 14 15 16 17 18 19 20 21 22 23 24 25 26 27 28

000
ASUS43 KJKL 221210
RWRJKL

EAST KENTUCKY HOURLY WEATHER ROUNDUP
NATIONAL WEATHER SERVICE JACKSON KY
700 AM EST WED FEB 22 2017

NOTE: "FAIR" INDICATES FEW OR NO CLOUDS BELOW 12,000 FEET WITH
NO SIGNIFICANT WEATHER AND/OR OBSTRUCTIONS TO VISIBILITY.

* THESE REPORTS ARE NOT UNDER NWS QUALITY CONTROL AND MAY NOT
  REPORT WEATHER SUCH AS PRECIPITATION AND FOG.

KYZ079-080-083-085-087-088-110-112-115-119-120-221300
...EASTERN KENTUCKY...

CITY           SKY/WX    TMP DP  RH WIND       PRES   REMARKS
JACKSON        LGT RAIN  53  51  93 CALM      29.96S
6HR MIN TEMP:  53; 6HR MAX TEMP:  58; 6HR PCP:  0.20;

LONDON         LGT RAIN  54  51  90 S3        29.95R
6HR MIN TEMP:  54; 6HR MAX TEMP:  56; 6HR PCP:  0.29;

SOMERSET*      LGT RAIN  52  52 100 CALM      29.96R
MONTICELLO*    LGT RAIN  55  53  93 VRB7      29.96R
6HR MIN TEMP:  54; 6HR MAX TEMP:  55; 6HR PCP:  0.14;

WILLIAMSBURG*  CLOUDY    54  54 100 SE5       29.95S
MIDDLESBORO*   RAIN      53  53 100 CALM      29.98S
6HR MIN TEMP:  53; 6HR MAX TEMP:  55; 6HR PCP:  0.04;

HARLAN APT*    CLOUDY    52  50  93 CALM      29.98S
PIKE CO APT*   LGT RAIN  52  52 100 SE6       29.97F
BIG SANDY APT* DRIZZLE   53  53 100 SE3       29.97S
6HR MIN TEMP:  52; 6HR MAX TEMP:  62;

MOREHEAD APT*  LGT RAIN  55  54  94 CALM      29.97S
ASHLAND*       CLOUDY    54  54 100 SE3       29.95S VSB 1
$$

KYZ035-036-041-042-044-050-067-078-099-221300
...CENTRAL KENTUCKY...

CITY           SKY/WX    TMP DP  RH WIND       PRES   REMARKS
MT STERLING*   DRIZZLE   54  54 100 S5        29.96F
FLEMING/MASON* DRZL/FOG  54  54 100 SE6       29.96S VSB 1
DANVILLE*      CLOUDY    54  54 100 S3        29.95F FOG
LEXINGTON      CLOUDY    56  53  90 CALM      29.94S
6HR MIN TEMP:  56; 6HR MAX TEMP:  57; 6HR PCP:  0.03;

FRANKFORT      CLOUDY    57  53  86 CALM      29.92S
6HR MIN TEMP:  57; 6HR MAX TEMP:  58; 6HR PCP:  0.01;

LOUISVILLE     CLOUDY    58  54  86 SE6       29.92R
6HR MIN TEMP:  57; 6HR MAX TEMP:  60;

LEBANON*         N/A     55  55 100 S3        29.94R
GLASGOW*       CLOUDY   N/A N/A N/A CALM      29.93F HAZE
BOWLING GREEN  CLOUDY    56  54  93 SE6       29.93S FOG
6HR MIN TEMP:  54; 6HR MAX TEMP:  57; 6HR PCP:  0.03;

$$

KYZ091>093-OHZ055-061-077-WVZ005-015-034-035-042-221300
...SOUTHERN OHIO/WEST VIRGINIA...

CITY           SKY/WX    TMP DP  RH WIND       PRES   REMARKS
COVINGTON      CLOUDY    56  55  97 S7        29.92S
COLUMBUS       CLOUDY    55  54  96 S5        29.94S FOG
DAYTON         CLOUDY    55  54  96 S9        29.93S FOG
WILMINGTON     CLOUDY    54  54 100 S3        29.93S FOG
HUNTINGTON     CLOUDY    53  52  96 E3        29.96S FOG
CHARLESTON     LGT RAIN  52  50  93 CALM      29.99R
PINEVILLE*     RAIN      50  47  91 MISG      30.06R
BECKLEY        LGT RAIN  47  43  86 SE10      30.00F
BLUEFIELD      LGT RAIN  45  42  89 E3        30.03R
LOGAN CO APT*  CLOUDY    52  50  93 CALM      29.98S
$$

VAZ002-007-008-TNZ017-027-036-066-071-221300
...SOUTHWEST VIRGINIA/EAST TENNESSEE...

CITY           SKY/WX    TMP DP  RH WIND       PRES   REMARKS
WISE*          RAIN      50  50 100 CALM      30.01S
JONESVILLE*    LGT RAIN  52  52 100 NE3       30.01R
ABINGDON*      LGT RAIN  52  46  82 E5        30.01R
BRISTOL        LGT RAIN  52  47  83 NE5       29.99R
MORRISTOWN*    CLOUDY    55  50  82 E6        29.95S
SEVIERVILLE*   CLOUDY    52  48  87 CALM      29.95R
KNOXVILLE      LGT RAIN  55  51  86 CALM      29.93S
LAFOLLETTE*    CLOUDY    54  54 100 CALM      29.99S FOG
OAK RIDGE      LGT RAIN  55  52  89 CALM      29.96R
CROSSVILLE     CLOUDY    54  52  93 E3        29.95S
NASHVILLE      LGT RAIN  57  54  89 CALM      29.91R
$$

...KEY TO REMARKS...
VSB - VISIBILITY IN MILES
WCI - WIND CHILL INDEX
HX  - HEAT INDEX

$$




USA.gov is the U.S. government's official web portal to all federal, state and local government web resources and services.